When you browse on this site, cookies collect data to enhance your experience and personalize the content and advertising you see.
Visit our Privacy Policy to learn more. By continuing to use the site, you agree to this use of cookies and data.
  • In Hungary
  • List of Countries
  • For 7 days
  • Water Temperature
  • Satellite Maps
  • Weather Map
  • News
  • Weather Widgets
  • user-avatar
    Login

    Hourly Weather Dortmund

    Today, 20 July, Saturday

    Time Temperature Precipitation Wind Pressure Humidity
    00:00 +20°C° 0 mm 1 mps 752 mmHg 62%
    01:00 +20°C° 0 mm 1 mps 752 mmHg 62%
    02:00 +19°C° 0 mm 2 mps 751 mmHg 62%
    03:00 +19°C° 0 mm 2 mps 751 mmHg 62%
    04:00 +20°C° 0 mm 2 mps 751 mmHg 64%
    05:00 +21°C° 0 mm 3 mps 750 mmHg 65%
    06:00 +21°C° 0 mm 3 mps 750 mmHg 67%
    07:00 +23°C° 0 mm 4 mps 750 mmHg 61%
    08:00 +27°C° 0 mm 5 mps 750 mmHg 55%
    09:00 +29°C° 0 mm 6 mps 750 mmHg 49%
    10:00 +29°C° 0.5 mm 5 mps 749 mmHg 51%
    11:00 +29°C° 0.5 mm 5 mps 749 mmHg 52%
    12:00 +29°C° 0.5 mm 5 mps 749 mmHg 54%
    13:00 +29°C° 0.5 mm 5 mps 749 mmHg 54%
    14:00 +29°C° 0.5 mm 5 mps 749 mmHg 53%
    15:00 +29°C° 0.5 mm 5 mps 749 mmHg 53%
    16:00 +28°C° 0.3 mm 5 mps 749 mmHg 57%
    17:00 +26°C° 0.3 mm 5 mps 750 mmHg 62%
    18:00 +25°C° 0.3 mm 5 mps 750 mmHg 67%
    19:00 +23°C° 0 mm 4 mps 750 mmHg 69%
    20:00 +22°C° 0 mm 4 mps 751 mmHg 72%
    21:00 +21°C° 0 mm 3 mps 751 mmHg 74%
    22:00 +20°C° 0 mm 3 mps 752 mmHg 74%
    23:00 +20°C° 0 mm 3 mps 752 mmHg 74%

    Tomorrow, 21 July, Sunday

    Time Temperature Precipitation Wind Pressure Humidity
    00:00 +19°C° 0 mm 4 mps 753 mmHg 74%
    01:00 +18°C° 0 mm 4 mps 753 mmHg 76%
    02:00 +18°C° 0 mm 3 mps 753 mmHg 77%
    03:00 +17°C° 0 mm 3 mps 753 mmHg 78%
    04:00 +17°C° 0 mm 4 mps 754 mmHg 79%
    05:00 +17°C° 0 mm 4 mps 754 mmHg 79%
    06:00 +18°C° 0 mm 4 mps 755 mmHg 80%
    07:00 +19°C° 0 mm 4 mps 755 mmHg 74%
    08:00 +20°C° 0 mm 4 mps 756 mmHg 68%
    09:00 +22°C° 0 mm 5 mps 756 mmHg 62%
    10:00 +23°C° 0 mm 4 mps 757 mmHg 56%
    11:00 +25°C° 0 mm 4 mps 757 mmHg 51%
    12:00 +26°C° 0 mm 4 mps 757 mmHg 46%
    13:00 +26°C° 0 mm 4 mps 757 mmHg 47%
    14:00 +26°C° 0 mm 4 mps 758 mmHg 48%
    15:00 +26°C° 0 mm 3 mps 758 mmHg 49%
    16:00 +25°C° 0 mm 3 mps 758 mmHg 52%
    17:00 +24°C° 0 mm 2 mps 758 mmHg 56%
    18:00 +24°C° 0 mm 2 mps 758 mmHg 60%
    19:00 +22°C° 0 mm 1 mps 759 mmHg 64%
    20:00 +21°C° 0 mm 1 mps 759 mmHg 68%
    21:00 +20°C° 0 mm 1 mps 759 mmHg 71%
    22:00 +20°C° 0 mm 1 mps 759 mmHg 72%
    23:00 +19°C° 0 mm 1 mps 759 mmHg 73%

    Day after tomorrow, 22 July, Monday

    Time Temperature Precipitation Wind Pressure Humidity
    00:00 +19°C° 0 mm 1 mps 759 mmHg 74%
    01:00 +19°C° 0 mm 1 mps 759 mmHg 75%
    02:00 +19°C° 0 mm 1 mps 759 mmHg 76%
    03:00 +18°C° 0 mm 1 mps 759 mmHg 77%
    04:00 +19°C° 0 mm 1 mps 759 mmHg 75%
    05:00 +19°C° 0 mm 2 mps 759 mmHg 72%
    06:00 +20°C° 0 mm 2 mps 759 mmHg 70%
    07:00 +21°C° 0 mm 2 mps 759 mmHg 63%
    08:00 +24°C° 0 mm 2 mps 760 mmHg 56%
    09:00 +25°C° 0 mm 3 mps 760 mmHg 49%
    10:00 +26°C° 0 mm 3 mps 760 mmHg 45%
    11:00 +27°C° 0 mm 2 mps 760 mmHg 41%
    12:00 +28°C° 0 mm 2 mps 759 mmHg 36%
    13:00 +29°C° 0 mm 2 mps 759 mmHg 36%
    14:00 +29°C° 0 mm 2 mps 759 mmHg 35%
    15:00 +30°C° 0 mm 2 mps 759 mmHg 34%
    16:00 +29°C° 0 mm 2 mps 759 mmHg 39%
    17:00 +28°C° 0 mm 1 mps 759 mmHg 44%
    18:00 +27°C° 0 mm 1 mps 759 mmHg 49%
    19:00 +26°C° 0 mm 1 mps 759 mmHg 53%
    20:00 +24°C° 0 mm 1 mps 759 mmHg 57%
    21:00 +23°C° 0 mm 1 mps 760 mmHg 61%
    22:00 +22°C° 0 mm 1 mps 759 mmHg 62%
    23:00 +22°C° 0 mm 1 mps 759 mmHg 64%

    23 July, Tuesday

    Time Temperature Precipitation Wind Pressure Humidity
    00:00 +21°C° 0 mm 1 mps 759 mmHg 65%
    01:00 +21°C° 0 mm 1 mps 759 mmHg 66%
    02:00 +21°C° 0 mm 1 mps 759 mmHg 66%
    03:00 +20°C° 0 mm 1 mps 759 mmHg 67%
    04:00 +21°C° 0 mm 1 mps 759 mmHg 65%
    05:00 +22°C° 0 mm 1 mps 758 mmHg 62%
    06:00 +23°C° 0 mm 1 mps 758 mmHg 60%
    07:00 +25°C° 0 mm 1 mps 758 mmHg 54%
    08:00 +27°C° 0 mm 1 mps 758 mmHg 47%
    09:00 +29°C° 0 mm 1 mps 758 mmHg 41%
    10:00 +31°C° 0 mm 1 mps 758 mmHg 38%
    11:00 +32°C° 0 mm 1 mps 757 mmHg 34%
    12:00 +33°C° 0 mm 1 mps 757 mmHg 31%
    13:00 +34°C° 0 mm 2 mps 757 mmHg 31%
    14:00 +35°C° 0 mm 2 mps 756 mmHg 32%
    15:00 +35°C° 0 mm 2 mps 756 mmHg 32%
    16:00 +34°C° 0 mm 2 mps 756 mmHg 37%
    17:00 +32°C° 0 mm 2 mps 756 mmHg 42%
    18:00 +31°C° 0 mm 2 mps 755 mmHg 47%
    19:00 +29°C° 0 mm 2 mps 756 mmHg 51%
    20:00 +27°C° 0 mm 2 mps 756 mmHg 54%
    21:00 +26°C° 0 mm 2 mps 756 mmHg 58%
    22:00 +25°C° 0 mm 2 mps 756 mmHg 59%
    23:00 +25°C° 0 mm 2 mps 755 mmHg 59%

    24 July, Wednesday

    Time Temperature Precipitation Wind Pressure Humidity
    00:00 +24°C° 0 mm 2 mps 755 mmHg 60%
    01:00 +24°C° 0 mm 2 mps 755 mmHg 62%
    02:00 +23°C° 0 mm 2 mps 755 mmHg 63%
    03:00 +23°C° 0 mm 1 mps 755 mmHg 65%
    04:00 +24°C° 0 mm 1 mps 755 mmHg 63%
    05:00 +25°C° 0 mm 1 mps 755 mmHg 61%
    06:00 +26°C° 0 mm 1 mps 755 mmHg 60%
    07:00 +28°C° 0 mm 1 mps 755 mmHg 54%
    08:00 +30°C° 0 mm 2 mps 755 mmHg 48%
    09:00 +32°C° 0 mm 2 mps 755 mmHg 42%
    10:00 +34°C° 0 mm 3 mps 755 mmHg 38%
    11:00 +35°C° 0 mm 3 mps 754 mmHg 35%
    12:00 +37°C° 0 mm 3 mps 754 mmHg 31%
    13:00 +37°C° 0 mm 3 mps 754 mmHg 31%
    14:00 +37°C° 0 mm 2 mps 754 mmHg 31%
    15:00 +37°C° 0 mm 2 mps 753 mmHg 30%
    16:00 +36°C° 0 mm 2 mps 753 mmHg 35%
    17:00 +35°C° 0 mm 2 mps 753 mmHg 40%
    18:00 +34°C° 0 mm 2 mps 753 mmHg 45%
    19:00 +31°C° 0 mm 3 mps 754 mmHg 47%
    20:00 +30°C° 0 mm 3 mps 754 mmHg 49%
    21:00 +29°C° 0 mm 3 mps 754 mmHg 51%
    22:00 +28°C° 0 mm 3 mps 754 mmHg 53%
    23:00 +27°C° 0 mm 2 mps 754 mmHg 54%

    25 July, Thursday

    Time Temperature Precipitation Wind Pressure Humidity
    00:00 +26°C° 0 mm 2 mps 754 mmHg 56%
    01:00 +26°C° 0 mm 2 mps 754 mmHg 57%
    02:00 +25°C° 0 mm 2 mps 754 mmHg 59%
    03:00 +25°C° 0 mm 2 mps 754 mmHg 61%
    04:00 +26°C° 0 mm 2 mps 754 mmHg 59%
    05:00 +26°C° 0 mm 2 mps 754 mmHg 58%
    06:00 +27°C° 0 mm 2 mps 754 mmHg 57%
    07:00 +29°C° 0 mm 2 mps 754 mmHg 51%
    08:00 +31°C° 0 mm 3 mps 754 mmHg 44%
    09:00 +35°C° 0 mm 3 mps 754 mmHg 37%
    10:00 +35°C° 0 mm 3 mps 754 mmHg 34%
    11:00 +36°C° 0 mm 3 mps 753 mmHg 32%
    12:00 +37°C° 0 mm 3 mps 753 mmHg 29%
    13:00 +38°C° 0 mm 4 mps 753 mmHg 29%
    14:00 +38°C° 0 mm 4 mps 752 mmHg 28%
    15:00 +38°C° 0 mm 4 mps 752 mmHg 28%
    16:00 +37°C° 0 mm 4 mps 752 mmHg 31%
    17:00 +35°C° 0 mm 3 mps 752 mmHg 35%
    18:00 +34°C° 0 mm 3 mps 752 mmHg 38%
    19:00 +31°C° 0 mm 3 mps 752 mmHg 42%
    20:00 +30°C° 0 mm 3 mps 752 mmHg 45%
    21:00 +28°C° 0 mm 3 mps 752 mmHg 49%
    22:00 +28°C° 0 mm 3 mps 752 mmHg 51%
    23:00 +27°C° 0 mm 3 mps 751 mmHg 53%
    Show more